Regional Weather Roundup
Issued by NWS Grand Forks, ND

Home | Current Version | Previous Version | Text Only | Print | Product List | Glossary On
Versions: 1 2 3 4 5 6 7 8 9 10 11 12 13 14 15 16 17 18 19 20 21 22 23 24 25 26 27 28 29 30 31 32 33 34 35 36 37 38 39 40 41 42 43 44 45 46 47 48 49 50
000
ASUS43 KFGF 010131
RWRFGF
PRAIRIE TO PINES  WEATHER ROUNDUP
NATIONAL WEATHER SERVICE EASTERN NORTH DAKOTA/GRAND FORKS ND
700 PM CST SAT FEB 28 2015

 **SATELLITE DATA USED TO AUGMENT SKY COVER AT AUTOMATED STATIONS**
 *****  WEATHER ACROSS EASTERN NORTH DAKOTA  *****

CITY           SKY/WX    TMP DP  RH WIND       PRES   REMARKS
GRAND FORKS    CLOUDY    18  10  71 W14       30.13R WCI   4
GRAND FRKS AFB CLOUDY    15   6  67 NW14      30.15R WCI   0
GRAND FRKS NWS   N/A     14 N/A N/A W18         N/A  WCI  -3
DEVILS LAKE    CLEAR      5  -2  72 W13       30.13R WCI -12
FARGO          CLOUDY    24  17  74 SW13      30.16R WCI  12
WAHPETON ARPT  CLOUDY    23  19  86 S12       30.18S WCI  12
$$

 ***** WEATHER ACROSS CENTRAL AND WESTERN NORTH DAKOTA  *****

CITY           SKY/WX    TMP DP  RH WIND       PRES   REMARKS
BISMARCK       PTCLDY    14   3  61 NW7       30.18R WCI   4
MINOT          CLEAR      7  -1  70 W8        30.14R WCI  -6
JAMESTOWN      PTCLDY    10   1  67 W16       30.16R WCI  -7
MINOT AFB      CLEAR      3  -1  83 W9        30.14R WCI -11
GARRISON         N/A      6  -1  73 NW8       30.15R WCI  -7
WILLISTON      CLEAR     10   0  63 W3        30.14S
DICKINSON      CLEAR     10   2  69 NW8       30.10R WCI  -2
HETTINGER      MOCLDY    14   4  64 W7        30.13R WCI   4
$$

 *****  OTHER AIRPORT OBSERVATIONS IN OUR AREA  *****

CITY           SKY/WX    TMP DP  RH WIND       PRES   REMARKS
WALHALLA         N/A      9   1  72 W10G16    30.11R WCI  -6
GRAFTON AIRPOR NOT AVBL
VALLEY CITY AR CLOUDY    10   7  85 NW9       30.16R WCI  -2
CANDO          FAIR       1  -2  85 W14       30.12R WCI -17
CAVALIER APRT  FAIR      10   3  72 W13       30.12R WCI  -5
GWINNER        CLOUDY    25  16  68 NW13      30.17R WCI  13
SHEYENNE NWR     N/A     24  15  69 W7        29.95S WCI  16
ROLLA          FAIR       5  -2  72 W9        30.08R WCI  -9
 ***** THE ABOVE OBSERVATIONS ARE NON NWS ARE NOT QUALITY
       CONTROLLED AND MAY MIS-REPORT RAIN FOR SNOW...
$$

  *****  WEATHER ACROSS NORTHERN MINNESOTA  *****

CITY           SKY/WX    TMP DP  RH WIND       PRES   REMARKS
FLAG ISLAND    LGT SNOW  19  18  93 S12       30.05S WCI   7
WARROAD        LGT SNOW  21  18  86 S9        30.07S VSB 1   WCI  11
ROSEAU         LGT SNOW  21  16  79 SW13      30.07R WCI   9
HALLOCK        CLOUDY    18  12  79 W9        30.09R WCI   6
THF RVR FALLS  CLOUDY    19  16  86 SW15      30.10R WCI   5
BAUDETTE       LGT SNOW  20  16  84 S14       30.07F FOG     WCI   7
WASKISH        FLURRIES  21  12  68 S8G16     30.12S WCI  12
CROOKSTON      CLOUDY    19  14  79 W15       30.14R WCI   5
STEPHEN NDAWN    N/A     19  16  86 W10         N/A  WCI   8
GREENBUSH NDAW   N/A     18  16  93 MISG        N/A
$$
  *****  WEATHER ACROSS CENTRAL AND WEST MINNESOTA  *****

CITY           SKY/WX    TMP DP  RH WIND       PRES   REMARKS
FOSSTON        LGT SNOW  18  16  93 S17G23    30.12R WCI   2
BEMIDJI        CLOUDY    18  13  79 S12       30.12F WCI   6
PARK RAPIDS    LGT SNOW  18  14  84 S10       30.15S FOG     WCI   6
ELBOW LAKE     CLOUDY    18  13  82 S14       30.19R WCI   4
WADENA         FLURRIES  16  12  86 S10       30.18S WCI   3
DETROIT LAKES  LGT SNOW  21  18  86 S14G20    30.14S WCI   8
MOORHEAD       MIX PCPN  23  23 100 S9        30.16S WCI  13
FERGUS FALLS   LGT SNOW  19  14  79 S15       30.22R WCI   5
MORRIS MN      CLOUDY    19  14  79 S14       30.20S WCI   6
STAPLES        LGT SNOW  16  12  86 S12       30.20F WCI   3
$$
  *****  WEATHER ELSEWHERE ACROSS MINNESOTA  *****

CITY           SKY/WX    TMP DP  RH WIND       PRES   REMARKS
DULUTH         MOCLDY    17   1  49 S16       30.23R WCI   2
INTRNTL FALLS  MOCLDY    20   1  43 S5        30.12S WCI  13
ELY            PTCLDY    18   0  45 S13       30.18S WCI   4
CLOQUET        CLOUDY    16   1  53 S10G18    30.25R WCI   3
WHEATON        NOT AVBL
BRAINERD       CLOUDY    17   8  67 S13       30.23S WCI   4
HIBBING        CLOUDY    18   0  45 S6        30.19S WCI  10
ALEXANDRIA     CLOUDY    18  12  77 S12       30.20S WCI   5
SAINT CLOUD    CLOUDY    16   6  65 S15G24    30.29R WCI   1
MINNEAPOLIS    MOCLDY    14   2  58 S13       30.37S WCI   0
$$

  *****  WEATHER ACROSS SOUTH DAKOTA  *****

CITY           SKY/WX    TMP DP  RH WIND       PRES   REMARKS
SIOUX FALLS    CLEAR     23  12  62 S12       30.20F WCI  12
BROOKINGS      NOT AVBL
WATERTOWN      CLOUDY    21  12  68 S7        30.13S WCI  12
HURON          PTCLDY    22  15  75 NW8       30.17R WCI  12
SISSETON         N/A     24  15  68 S8        30.16R WCI  15
ABERDEEN       MOCLDY    21  13  71 NW8       30.17R WCI  11
MITCHELL       CLOUDY    31  11  43 SW9       30.17R WCI  23
PIERRE         CLEAR     20   7  57 N7        30.17R WCI  11
MOBRIDGE       CLEAR     13   4  67 N9        30.16R WCI   1
RAPID CITY     PTCLDY    17   9  70 N10       30.11R WCI   5
$$

  *****  SOME WEATHER IN NEARBY STATES *****

CITY           SKY/WX    TMP DP  RH WIND       PRES   REMARKS
GLASGOW MT     PTCLDY    20   6  55 W13       30.13R WCI   7
GREAT FALLS MT PTCLDY    20  10  65 SW10      30.14R WCI   9
CHEYENNE WY    CLOUDY    20  10  65 E8        29.92R WCI  10
SCOTTSBLUFF NE MOCLDY    25   9  50 E8        30.04R WCI  16
OMAHA NE       FLURRIES  23  17  78 S12       30.36R WCI  12
DES MOINES IA  FLURRIES  21  16  81 SE5       30.40R WCI  15
DAVENPORT IA   LGT SNOW  14   8  77 E8        30.48F WCI   3
CHICAGO IL     CLOUDY    20   4  50 S8        30.53R WCI  10
EAU CLAIRE WI  CLOUDY    15  -1  49 S12       30.39F WCI   2
LA CROSSE WI   CLOUDY    18   1  47 S10       30.45S WCI   6
$$

  *****  SOME NATIONAL WEATHER *****

CITY           SKY/WX    TMP DP  RH WIND       PRES   REMARKS
LA GUARDIA NY  PTCLDY    28   2  32 SW6       30.75S WCI  22
RALEIGH NC     MOCLDY    31  14  49 CALM      30.70S
ATLANTA GA     MOCLDY    48  30  49 E13       30.51R
NEW ORLEANS LA MOCLDY    57  49  74 E8        30.33R
OKLAHOMA CITY  FRZ DRZL  27  23  85 E3        30.30R FOG
ALBUQUERQUE NM MOCLDY    35  26  69 N12       29.92R
SALT LAKE CITY LGT RAIN  36  32  85 CALM      29.79R
LOS ANGELES CA MOCLDY    59  46  62 SW12      29.85S
BOISE ID       MOCLDY    46  36  68 E3        29.87R
SEATTLE WA     CLEAR     52  23  32 N10       30.17F
$$

*** WEATHER ACROSS MANITOBA...SASKATCHEWAN AND ONTARIO ***
                ***ONTARIO***

CITY           SKY/WX    TMP DP  RH WIND       PRES   REMARKS
GERALDTON      MOCLDY    14   7  73 S17       30.19S WCI  -3
THUNDER BAY    PTCLDY    18   3  53 W5        30.27S WCI  11
SIOUX LOOKOUT  CLOUDY    19   0  42 S8        30.06S WCI   9
TORONTO        CLEAR     16   1  53 SW6       30.66F WCI   7
BIG TROUT LK   PTCLDY     9   3  78 SW6       29.94F WCI  -1
PICKLE LAKE    MOCLDY    18   1  49 SW9       30.00F WCI   6
DRYDEN         CLOUDY    19   3  49 SW7       30.05R WCI  10
KENORA         LGT SNOW  18  16  93 S9        30.04R WCI   6
$$
                *** MANITOBA***

CITY           SKY/WX    TMP DP  RH WIND       PRES   REMARKS
BRANDON        PTCLDY     3  -2  78 W12       30.07S WCI -13
DAUPHIN        CLEAR     10   3  72 W18       30.03R WCI  -8
ISLAND LAKE    CLOUDY    18   5  57 SW6       29.93F WCI   9
PILOT MOUND      N/A      3   0  85 W6          N/A  WCI  -8
THE PAS        MOCLDY    14   7  73 W9        29.95R WCI   2
THOMPSON       FLURRIES  14   7  73 NW8G17    29.89R WCI   3
WINNIPEG       CLEAR     12   7  79 SW6       30.08S WCI   3
LYNN LAKE      CLEAR      9   0  66 NW7       29.91R WCI  -3
CHURCHILL      CLEAR     -4 -11  71 NW16G23   29.89R WCI -25
GILLAM         LGT SNOW  12   9  85 NW12      29.85R VSB 3/4 WCI  -2
$$
                ***SASKATCHEWAN***

CITY           SKY/WX    TMP DP  RH WIND       PRES   REMARKS
ESTEVAN        PTCLDY     3  -2  78 SW8       30.11F WCI -10
KINDERSLEY     LGT SNOW  18  14  86 W14       30.09S DRFTSNOWWCI   4
LLOYDMINSTER   FLURRIES  21  16  79 NW14G21   30.07R WCI   8
PRINCE ALBERT  MOCLDY    18  12  79 W13       30.02R WCI   4
REGINA         FLURRIES   5   1  85 SW8       30.06F WCI  -8
YORKTON        CLEAR      7   1  78 SW13      30.02S WCI  -9
N. BATTLEFORD  FLURRIES  19  18  93 W13       30.08S WCI   7
LA RONGE       PTCLDY    18  12  79 NW6       30.01R WCI   9
SASKATOON      FLURRIES  10   7  85 W8        30.07R WCI  -1
SWIFT CURRENT  PTCLDY    14  12  92 W10       30.06R WCI   1
$$
NOTE: THESE ARE AUTOMATED STATIONS WITH LIMITED QUALITY CONTROL
      "FAIR" INDICATES FEW OR NO CLOUDS BELOW 12,000 FEET WITH NO
      SIGNIFICANT WEATHER AND/OR OBSTRUCTIONS TO VISIBILITY.
      SKY/WX - SKY CONDITION AND SIGNIFICANT WEATHER.
      TMP - AIR TEMPERATURE.    DP   - DEWPOINT TEMPERATURE.
      RH  - RELATIVE HUMIDITY.  PRES - PRESSURE.
      HX  - HEAT INDEX.         WCI  - WIND CHILL INDEX.
$


USA.gov is the U.S. government's official web portal to all federal, state and local government web resources and services.